Dewpoint
58 58 57 57 57 58 59 57 56 55 54 55 55 54 53 56 54 43 44 50 51 56 56 39 34 32 33 36 36 30 24 18 15 16 19 25 23 26 26 21 16 18 19 28 31
58 58 58 58 58 58 57 55 55 54 54 55 54 54 52 54 34 32 47 53 54 54 40 34 28 30 27 30 32 27 24 19 20 23 22 25 26 21 18 17 20 21 24 28 30
57 57 56 56 56 55 54 54 54 53 54 54 54 54 55 48 26 28 50 52 53 50 38 37 33 29 26 30 29 25 23 24 26 27 27 24 22 22 21 22 22 22 24 27 29
55 55 55 55 54 53 53 53 54 53 54 54 55 55 54 44 21 31 49 49 50 39 34 33 30 26 26 25 28 23 26 26 28 31 27 23 23 21 24 23 25 30 29 28 27
55 55 54 53 53 52 52 53 53 52 54 54 56 54 38 24 27 34 49 45 36 37 33 30 25 25 22 24 23 19 23 25 29 28 27 27 27 25 24 25 27 28 25 26 30
54 54 54 54 54 54 53 53 52 53 54 54 51 51 29 21 32 33 34 34 36 34 33 30 24 24 22 20 19 25 25 24 27 29 28 27 25 28 23 26 27 26 24 29 31
53 53 53 53 53 53 53 53 53 53 53 54 50 32 30 30 33 34 34 36 37 36 35 37 29 23 20 23 27 27 26 27 26 26 23 25 25 24 23 25 26 23 24 28 32
53 52 53 53 53 53 52 51 53 52 53 53 48 30 29 34 34 32 32 33 35 38 38 38 32 30 27 26 22 21 22 24 25 23 25 23 22 21 23 21 22 23 24 27 30
54 53 52 52 52 53 53 53 51 50 49 45 35 29 27 35 30 33 35 32 33 35 35 33 30 25 26 20 16 15 11 15 19 21 22 23 26 21 23 21 21 22 23 30 29
55 53 52 52 53 53 52 50 51 44 39 28 23 25 26 28 33 33 35 35 31 30 32 31 29 21 15 14 20 13 8 7 13 23 23 24 25 25 24 24 24 23 26 29 29
55 54 53 53 52 52 46 38 33 32 32 30 28 26 30 33 36 31 34 30 27 27 23 26 24 18 16 16 14 12 10 12 17 22 24 25 24 22 24 23 23 23 27 32 33
55 55 54 53 50 49 43 33 36 38 27 31 29 30 33 34 28 31 32 25 24 21 23 25 20 20 20 19 17 15 14 19 22 22 22 21 21 21 24 25 26 26 30 33 34
55 54 53 52 48 46 39 39 45 40 28 25 29 29 32 34 29 30 32 26 21 22 20 25 23 21 18 18 17 20 19 19 18 22 22 22 20 22 25 26 27 28 29 30 31
54 53 51 50 42 40 40 43 45 43 37 24 26 29 31 32 28 33 29 30 23 22 23 22 20 19 18 16 20 21 19 21 23 21 15 21 9 20 23 22 23 25 27 24 25
53 51 49 49 41 34 44 44 44 39 37 26 27 31 29 29 28 27 27 25 20 20 23 27 22 20 18 20 21 22 24 24 24 22 20 20 19 19 19 20 21 25 24 28 27
52 50 49 42 43 44 46 44 43 38 37 26 28 28 24 25 24 25 22 24 25 23 24 24 25 18 18 21 22 25 24 25 24 23 24 19 20 19 18 19 19 25 24 26 27
52 50 46 42 38 47 46 43 42 38 24 24 26 26 22 21 23 22 22 19 22 29 25 24 23 23 23 22 26 25 24 31 29 32 26 19 18 16 19 14 18 23 24 26 29
52 49 46 44 48 47 45 32 35 17 22 27 27 23 20 21 21 22 21 19 18 19 23 26 28 23 20 22 23 24 25 28 27 20 19 20 15 18 21 20 21 25 27 29 31
50 49 47 46 47 47 40 42 25 19 24 24 24 18 20 21 20 20 20 18 14 19 20 18 19 21 22 22 24 26 27 25 22 22 18 14 15 20 19 21 23 27 29 30 29
45 45 46 47 48 46 34 35 24 27 26 24 12 18 12 20 18 18 19 19 17 17 19 21 21 22 23 25 27 26 25 26 29 24 16 12 14 16 21 20 23 26 27 28 29
46 38 47 48 47 37 40 27 27 28 28 23 17 17 15 16 18 14 16 20 16 18 20 21 22 24 25 24 24 25 25 23 27 23 20 17 15 22 23 22 22 24 26 27 27
41 28 46 48 34 33 32 26 33 29 31 28 27 22 18 20 20 20 20 23 18 20 20 22 24 25 22 25 25 25 23 23 22 21 19 22 21 21 21 23 22 22 26 27 27
36 35 45 45 32 31 33 32 31 30 29 28 26 27 26 22 21 24 25 26 21 21 22 25 29 29 21 24 24 24 24 24 28 29 22 18 19 20 21 22 23 23 24 26 28
36 33 37 39 35 30 30 29 30 34 30 29 28 29 26 24 24 24 25 25 23 23 32 32 29 25 19 21 23 23 24 24 25 31 21 19 17 19 20 21 26 28 28 28 29
35 30 36 32 32 31 30 26 27 30 32 30 29 27 25 23 24 24 25 29 23 31 28 27 33 24 24 23 23 23 23 23 26 25 26 20 18 17 20 26 26 26 28 28 29
33 33 35 31 32 31 30 27 25 29 30 29 29 28 27 25 24 24 26 26 27 27 26 28 31 29 27 24 23 23 23 23 24 23 23 22 21 24 26 26 24 24 24 25 28
41 40 33 30 28 27 24 24 26 29 33 32 30 29 29 29 30 30 30 30 30 29 27 29 32 30 20 22 23 23 21 19 19 19 20 21 24 27 26 24 24 21 20 23 25
Lifted_Index
1 1 1 0 0 -0 -0 0 1 2 2 2 3 4 6 7 7 8 7 7 7 7 8 9 10 10 9 8 8 8 6 5 5 6 6 7 8 9 10 9 9 10 11 12 13
1 1 1 1 1 1 1 1 2 2 3 3 4 5 6 7 8 9 8 8 7 8 8 9 9 9 8 8 8 7 6 5 6 7 7 8 8 9 9 8 9 10 12 13 13
2 2 2 2 2 2 2 2 2 3 3 4 5 6 7 7 8 9 9 9 9 9 9 9 9 8 7 7 7 6 6 6 7 8 8 8 8 8 8 8 9 10 12 13 13
3 3 3 3 3 3 3 3 3 3 4 5 6 6 7 7 8 9 10 10 10 10 10 9 9 8 7 7 7 6 6 7 8 8 8 8 8 8 8 9 10 12 12 13 13
3 3 3 3 3 3 3 4 4 4 5 6 6 7 8 8 9 11 11 11 11 10 10 9 8 7 7 6 6 6 7 7 8 9 9 8 8 8 8 10 11 12 13 13 13
4 4 4 4 4 4 4 5 5 6 7 7 7 8 9 9 10 12 12 12 11 11 10 10 9 8 7 7 7 7 7 7 8 8 8 8 7 7 9 10 11 11 12 12 12
5 5 5 5 5 5 6 6 6 7 8 8 9 9 9 10 11 12 12 12 11 11 10 10 10 9 8 7 7 7 6 6 7 7 8 7 6 7 9 9 10 10 11 11 12
6 6 6 7 7 7 7 8 8 9 10 10 11 10 10 11 12 12 12 12 12 11 11 11 11 10 8 8 7 6 5 5 6 7 7 7 6 7 8 9 9 9 10 11 12
6 7 7 8 8 9 9 10 10 11 11 12 11 10 10 11 12 12 12 12 12 12 12 11 11 9 8 6 5 4 4 4 5 6 7 6 6 7 8 8 9 10 11 12 13
7 7 8 9 9 10 10 11 11 11 12 12 11 10 11 11 12 13 13 12 12 11 11 10 9 7 6 5 4 4 4 4 5 6 6 6 6 7 8 9 9 10 11 12 13
8 8 9 9 10 11 11 11 11 11 11 11 11 11 11 12 12 13 13 12 11 10 9 8 7 6 6 6 5 4 4 4 5 6 6 5 6 7 8 9 10 11 12 12 13
9 9 10 10 11 11 10 10 10 10 10 10 11 11 12 12 11 12 12 11 9 8 7 6 6 6 6 6 6 5 4 5 5 6 6 5 5 6 8 9 10 11 12 12 12
10 10 11 11 12 11 10 10 11 10 9 9 10 11 11 11 10 10 11 10 8 7 6 6 6 7 7 6 6 5 5 5 5 5 6 5 5 5 7 9 10 12 12 13 13
11 11 12 12 12 11 11 11 11 9 7 7 9 10 10 10 9 10 10 9 7 6 6 6 6 6 6 6 6 5 6 6 5 5 5 4 4 5 7 8 10 11 12 13 13
11 12 13 12 12 11 11 11 11 8 5 6 8 9 10 9 9 10 10 10 8 7 6 6 6 6 6 6 6 6 7 7 6 5 4 4 4 5 6 7 9 10 12 12 13
11 12 12 12 11 11 11 11 9 6 4 5 7 8 8 8 8 9 9 9 8 7 6 6 7 7 7 7 8 8 7 6 5 4 3 4 4 5 6 7 8 9 10 11 11
11 11 12 12 11 11 10 9 6 4 5 5 6 7 7 7 7 8 7 7 6 5 5 5 6 7 8 8 8 8 6 4 3 2 3 4 5 5 6 7 8 8 9 10 11
11 10 11 11 11 10 9 6 4 4 5 6 6 6 6 6 6 6 6 6 6 5 4 4 5 7 8 8 7 7 6 4 2 2 3 5 5 5 7 7 8 8 9 10 10
10 9 9 10 10 9 7 5 4 5 5 6 5 5 5 5 5 5 5 5 6 6 5 4 5 6 8 8 7 7 6 5 4 3 3 4 5 6 6 7 7 8 8 9 10
8 8 8 9 9 8 6 5 5 6 6 6 5 5 5 5 5 5 5 6 6 6 6 5 5 6 7 7 7 7 6 6 5 3 2 3 4 5 6 7 7 8 9 9 10
8 8 8 8 8 7 6 5 6 7 7 6 6 5 5 5 5 6 6 6 7 7 7 7 6 6 7 7 7 7 7 6 5 4 2 2 4 6 7 7 8 9 9 10 10
8 8 8 8 7 6 6 6 7 7 7 7 6 6 6 5 5 5 6 7 7 7 7 7 6 6 6 7 7 7 7 6 6 5 4 3 4 6 7 8 9 9 10 10 10
8 8 8 8 7 6 6 6 7 7 7 7 7 7 6 6 5 5 6 7 7 7 7 7 6 5 5 6 7 7 7 7 6 6 4 4 5 6 7 8 9 9 9 10 10
9 8 8 8 7 7 7 6 7 7 7 7 7 7 7 6 6 6 6 7 8 8 8 7 6 5 5 6 7 7 7 8 7 6 5 5 5 6 7 8 9 9 9 9 10
9 9 9 8 8 8 7 7 6 7 8 8 7 7 7 6 6 6 7 7 7 8 8 8 7 6 6 7 7 7 7 8 7 6 6 6 6 7 8 8 8 9 9 10 10
10 10 10 9 8 8 8 7 7 7 8 8 7 7 7 7 6 7 7 7 7 8 8 8 7 6 6 7 7 7 7 7 7 7 7 7 7 8 8 9 9 9 9 10 10
10 10 10 10 9 8 8 8 7 8 8 7 7 7 7 7 7 7 7 8 8 8 8 8 7 6 6 7 7 6 6 7 7 8 7 7 8 8 8 9 9 9 10 10 10